Pasco, WA

1:16 AM PDT on May 21, 2018 (GMT -0700)
Tri-Cities

Weather History for KPSC - August, 2013

Change the Weather History Date:

Friday, August 16, 2013

  Actual Average Record
Temperature  
Mean Temperature 76 °F 73 °F  
Max Temperature 91 °F 90 °F 106 °F (1942)
Min Temperature 61 °F 56 °F 42 °F (1910)
Degree Days  
Heating Degree Days 0 0  
Month to date heating degree days 0 0  
Since 1 June heating degree days 19 37  
Since 1 July heating degree days 0 5  
Cooling Degree Days 11 8  
Month to date cooling degree days 175 151  
Year to date cooling degree days 716 561  
Since 1 June cooling degree days 670 528  
Growing Degree Days 26 (Base 50)    
Moisture  
Dew Point 58 °F    
Average Humidity 58    
Maximum Humidity 84    
Minimum Humidity 32    
Precipitation  
Precipitation T in 0.01 in 0.38 in (1972)
Month to date precipitation 0.09 0.11  
Year to date precipitation 3.03 5.32  
Snow  
Snow 0.00 in - - ()
Snow Depth 0.00 in    
Sea Level Pressure  
Sea Level Pressure 29.91 in    
Wind  
Wind Speed 3 mph (East)    
Max Wind Speed 16 mph    
Max Gust Speed 21 mph    
Visibility 10 miles    
Events Rain , Thunderstorm    
T = Trace of Precipitation, MM = Missing Value Source: NWS Daily Summary

Daily Weather History Graph

Daily Weather History Graph

Search for Another Location

Airport or City:

Astronomy

Aug. 16, 2013 Rise Set
Actual Time 5:57 AM PDT 8:03 PM PDT
Civil Twilight 5:24 AM PDT 8:35 PM PDT
Nautical Twilight 4:43 AM PDT 9:16 PM PDT
Astronomical Twilight 3:58 AM PDT 10:00 PM PDT
Moon 4:33 PM PDT (8/16) 12:57 AM PDT (8/16)
Length of Visible Light 15h 11m
Length of Day
14h 06m
Waxing Gibbous, 76% of the Moon is Illuminated
Aug 16
Waxing Gibbous
Aug 20
Full
Aug 28
Last Quarter
Sep 5
New
Sep 12
First Quarter

Hourly Weather History & Observations

Time (PDT) Temp. Heat Index Dew Point Humidity Pressure Visibility Wind Dir Wind Speed Gust Speed Precip Events Conditions
12:53 AM 68.0 °F - 59.0 °F 73% 29.90 in 10.0 mi Calm Calm - N/A   Clear
1:53 AM 66.0 °F - 59.0 °F 78% 29.91 in 10.0 mi Calm Calm - N/A   Clear
2:53 AM 69.1 °F - 59.0 °F 70% 29.90 in 10.0 mi East 4.6 mph - N/A   Clear
3:53 AM 64.0 °F - 59.0 °F 84% 29.91 in 10.0 mi Calm Calm - N/A   Clear
4:53 AM 62.1 °F - 57.0 °F 84% 29.91 in 10.0 mi North 4.6 mph - N/A   Clear
5:53 AM 64.0 °F - 57.9 °F 80% 29.92 in 10.0 mi Calm Calm - N/A   Clear
6:53 AM 66.0 °F - 60.1 °F 81% 29.93 in 10.0 mi East 3.5 mph - N/A   Clear
7:53 AM 71.1 °F - 61.0 °F 70% 29.94 in 10.0 mi East 4.6 mph - N/A   Clear
8:53 AM 75.9 °F - 60.1 °F 58% 29.94 in 10.0 mi Calm Calm - N/A   Clear
9:53 AM 79.0 °F - 59.0 °F 50% 29.95 in 10.0 mi SW 3.5 mph - N/A   Clear
10:53 AM 82.0 °F 82.1 °F 59.0 °F 45% 29.95 in 10.0 mi NNW 4.6 mph - N/A   Clear
11:53 AM 84.9 °F 84.2 °F 57.9 °F 40% 29.94 in 10.0 mi Variable 3.5 mph - N/A   Clear
12:53 PM 86.0 °F 85.7 °F 60.1 °F 41% 29.93 in 10.0 mi NW 3.5 mph - N/A   Clear
1:53 PM 90.0 °F 88.6 °F 57.0 °F 33% 29.91 in 10.0 mi NNE 4.6 mph - N/A   Clear
2:53 PM 89.1 °F 88.0 °F 57.9 °F 35% 29.90 in 10.0 mi NNW 6.9 mph - N/A   Clear
3:53 PM 90.0 °F 87.9 °F 55.0 °F 30% 29.88 in 10.0 mi North 5.8 mph - N/A   Clear
4:53 PM 86.0 °F 85.7 °F 60.1 °F 41% 29.88 in 10.0 mi North 5.8 mph - 0.00 in Rain Light Rain
5:53 PM 88.0 °F 86.7 °F 57.0 °F 35% 29.89 in 10.0 mi NE 5.8 mph - N/A   Clear
6:53 PM 88.0 °F 86.9 °F 57.9 °F 36% 29.87 in 10.0 mi Calm Calm - N/A   Partly Cloudy
7:53 PM 86.0 °F 84.7 °F 55.9 °F 36% 29.87 in 10.0 mi South 8.1 mph - N/A   Scattered Clouds
8:21 PM 84.2 °F 83.0 °F 55.4 °F 37% 29.90 in 10.0 mi South 6.9 mph - N/A Thunderstorm Thunderstorm
8:53 PM 82.9 °F 82.4 °F 57.0 °F 41% 29.89 in 10.0 mi South 6.9 mph - N/A Thunderstorm Thunderstorm
9:10 PM 84.2 °F 83.0 °F 55.4 °F 37% 29.90 in 10.0 mi South 9.2 mph - N/A   Clear
9:53 PM 82.9 °F 82.1 °F 55.9 °F 39% 29.89 in 10.0 mi SSW 12.7 mph - N/A   Partly Cloudy
10:53 PM 82.9 °F 82.6 °F 57.9 °F 42% 29.90 in 10.0 mi SE 3.5 mph - N/A   Clear
11:53 PM 80.1 °F 80.7 °F 59.0 °F 48% 29.90 in 10.0 mi SW 6.9 mph - N/A   Clear